User: anonymous   Login
Location: Unspecified
(0.0000°N, 0.0000°E)
Time: 21:08:35
(UTC+00:00)
Language:

COSMOS 2463 - Orbit

View from above orbital plane
View from above orbital plane
View from above satellite
View from above satellite

Ground track
Ground track

The orbit data is extracted from the following two-line orbital elements,

1 36519U 10017A   18172.91438826 -.00000022 +00000-0 -41098-4 0  9995
2 36519 082.9605 232.5902 0035206 304.8122 054.9723 13.71425133408142
Epoch (UTC): 21 June 2018 21:56:43
Eccentricity: 0.0035206
inclination: 82.9605°
perigee height: 968 km
apogee height: 1020 km
right ascension of ascending node: 232.5902°
argument of perigee: 304.8122°
revolutions per day: 13.71425133
mean anomaly at epoch: 54.9723°
orbit number at epoch: 40814

The dashed part of the orbit path shows where the satellite is in the earth's shadow,  

DLR